Location: Fort Wayne
(41.1310°N, 85.1290°W)
Time: 17:41:28
(UTC-04:00)

COSMOS 2428 - Visible Passes

Search period start: 29 July 2016 00:00
Search period end: 08 August 2016 00:00
Orbit: 845 x 858 km, 70.9° (Epoch: 29 July)

Date Brightness Start Highest point End Pass type
(mag) Time Alt. Az. Time Alt. Az. Time Alt. Az.
01 Aug 3.1 06:01:37 10° SSW 06:07:14 69° ESE 06:12:53 10° NNE visible
02 Aug 3.0 05:49:27 10° SSW 05:55:04 69° ESE 06:00:43 10° NNE visible
03 Aug 3.0 05:37:18 10° SSW 05:42:55 69° ESE 05:48:34 10° NNE visible
04 Aug 3.0 05:25:08 10° SSW 05:30:45 69° ESE 05:36:24 10° NNE visible
05 Aug 2.9 05:13:37 13° SSW 05:18:36 70° ESE 05:24:15 10° NNE visible
06 Aug 2.9 05:02:15 18° S 05:06:26 70° ESE 05:12:05 10° NNE visible
07 Aug 2.9 04:50:48 24° S 04:54:16 70° ESE 04:59:56 10° NNE visible
